Regional Weather Roundup
Issued by NWS

Home | Current Version | Previous Version | Graphics & Text | Print | Product List | Glossary On
Versions: 1 2 3 4 5 6 7 8 9 10 11 12 13 14 15 16 17 18 19 20 21 22 23 24 25 26 27 28 29 30 31 32 33 34 35 36 37 38 39 40 41 42 43 44 45 46 47 48
000
ASUS45 KSLC 011110
RWRUT

UTAH REGIONAL WEATHER ROUNDUP
NATIONAL WEATHER SERVICE SALT LAKE CITY UT
500 AM MDT WED OCT 01 2014

UTZ001>011-023>025-011200-

NORTHERN UTAH

CITY           SKY/WX    TMP DP  RH WIND       PRES   REMARKS
HILL AFB       PTCLDY    44  34  69 NW7       29.99R
LOGAN          NOT AVBL
OGDEN          PTCLDY    43  36  76 NW3       29.98R
PROVO AIRPORT  CLOUDY    48  39  71 NW10      29.98R
SALT LAKE CITY MOCLDY    49  37  63 NW7       29.98R
VERNAL         CLOUDY    48  41  76 CALM      29.93S
WENDOVER       CLEAR     48  30  49 NW17      30.03R
HEBER CITY     CLOUDY    43  41  93 CALM      29.97S
WEST JORDAN    MOCLDY    45  37  76 NW7       29.99R

$$

UTZ012>022-026-027-011200-

SOUTHERN UTAH

CITY           SKY/WX    TMP DP  RH WIND       PRES   REMARKS
BRYCE CANYON   PTCLDY    34  32  92 W7        30.01S WCI  28
CEDAR CITY     PTCLDY    47  43  86 E3        29.98R
MILFORD        CLOUDY    49  45  86 N14       29.98R
MOAB/CYNLANDS  NOT AVBL
PRICE          CLOUDY    46  41  82 CALM      29.96R
ST GEORGE      CLOUDY    61  39  44 W6        29.85R
KANAB            N/A     45  41  87 NE3       29.95S

$$

REGIONAL REPORTS     COLORADO/ARIZONA

CITY           SKY/WX    TMP DP  RH WIND       PRES   REMARKS
CRAIG, CO      CLOUDY    43  40  89 CALM      29.96S
GRAND JUNCTION MOCLDY    46  41  82 CALM      29.88S
RIFLE          CLOUDY    45  40  82 SE5       29.93F
MONTROSE       CLOUDY    47  41  80 S9        29.95F
CORTEZ         CLOUDY    41  39  93 CALM      29.95S
PAGE, AZ       NOT AVBL
GRAND CANYON   PTCLDY    34  33  96 CALM      30.01S FOG
KINGMAN        CLEAR     60  41  49 SE8       29.86R
FLAGSTAFF      CLEAR     37  33  85 CALM      30.04S

$$

REGIONAL REPORTS    NEVADA/IDAHO/WYOMING

CITY           SKY/WX    TMP DP  RH WIND       PRES   REMARKS
LAS VEGAS, NV  CLEAR     67  39  35 SW8       29.73S
ELY            CLEAR     37  33  85 NW10      30.05S WCI  30
ELKO           PTCLDY    34  28  79 E3        30.09R
POCATELLO, ID  CLOUDY    42  37  82 SW9       30.00R
BURLEY         CLOUDY    42  36  79 W7        30.00R
EVANSTON, WY   FOG       37  36  96 W7        29.98S VSB 1   WCI  32
ROCK SPRINGS   MOCLDY    37  34  89 W9        29.96F WCI  30

$$



USA.gov is the U.S. government's official web portal to all federal, state and local government web resources and services.